Weather History for Monument Pass, CO

Change the Weather History Date:

Thursday, September 27, 2012

  Actual Average (KAPA) Record (KAPA)
Temperature  
Mean Temperature 48 °F -  
Max Temperature 57 °F 68 °F 86 °F (2001)
Min Temperature 39 °F 40 °F 24 °F (1996)
Degree Days  
Heating Degree Days 17    
Moisture  
Dew Point 43 °F    
Average Humidity 86    
Maximum Humidity 100    
Minimum Humidity 63    
Precipitation  
Precipitation 0.09 in - - ()
Sea Level Pressure  
Sea Level Pressure 30.26 in    
Wind  
Wind Speed 6 mph (WSW)    
Max Wind Speed 13 mph    
Max Gust Speed -    
Visibility 9 miles    
Events Rain , Thunderstorm    
Averages and records for this station are not official NWS values.
T = Trace of Precipitation, MM = Missing Value Source: NWS Daily Summary

Daily Weather History Graph

Daily Weather History Graph

Search for Another Location

Airport:

Trip Planner

Search our weather history database for the weather conditions in past years. The results will help you decide how hot, cold, wet, or windy it might be!

Date:

Astronomy

Sep. 27, 2012 Rise Set
Actual Time 6:51 AM MDT 6:46 PM MDT
Civil Twilight 6:24 AM MDT 7:13 PM MDT
Nautical Twilight 5:53 AM MDT 7:44 PM MDT
Astronomical Twilight 5:22 AM MDT 8:15 PM MDT
Moon 5:19 PM MDT (9/27) 4:23 AM MDT (9/27)
Length of Visible Light 12h 48m
Length of Day
11h 55m
Waxing Gibbous, 94% of the Moon is Illuminated
Sep 27
Waxing Gibbous
Sep 29
Full
Oct 8
Last Quarter
Oct 15
New
Oct 21
First Quarter

Hourly Weather History & Observations

Time (MDT) Temp. Windchill Dew Point Humidity Pressure Visibility Wind Dir Wind Speed Gust Speed Precip Events Conditions
12:10 AM 44.6 °F 42.2 °F 42.8 °F 93% 30.25 in 10.0 mi WNW 4.6 mph - N/A Thunderstorm Thunderstorm
12:31 AM 44.6 °F 43.1 °F 42.8 °F 93% 30.25 in 10.0 mi NNW 3.5 mph - N/A   Mostly Cloudy
12:48 AM 44.6 °F 42.2 °F 42.8 °F 93% 30.26 in 10.0 mi West 4.6 mph - N/A Thunderstorm Thunderstorm
1:10 AM 42.8 °F 39.3 °F 42.8 °F 100% 30.26 in 10.0 mi West 5.8 mph - N/A   Scattered Clouds
1:22 AM 42.8 °F 40.1 °F 42.8 °F 100% 30.26 in 10.0 mi West 4.6 mph - N/A Thunderstorm Mostly Cloudy
1:51 AM 44.6 °F 43.1 °F 42.8 °F 93% 30.27 in 10.0 mi SW 3.5 mph - N/A   Overcast
2:11 AM 44.6 °F 42.2 °F 42.8 °F 93% 30.27 in 10.0 mi West 4.6 mph - N/A   Overcast
2:26 AM 44.6 °F 42.2 °F 42.8 °F 93% 30.27 in 10.0 mi WSW 4.6 mph - N/A   Mostly Cloudy
2:51 AM 42.8 °F 40.1 °F 42.8 °F 100% 30.26 in 7.0 mi WSW 4.6 mph - N/A   Scattered Clouds
3:11 AM 42.8 °F 39.3 °F 42.8 °F 100% 30.26 in 7.0 mi SW 5.8 mph - N/A   Scattered Clouds
3:28 AM 42.8 °F 39.3 °F 41.0 °F 93% 30.25 in 10.0 mi SW 5.8 mph - N/A   Clear
3:51 AM 42.8 °F 39.3 °F 41.0 °F 93% 30.25 in 7.0 mi SSW 5.8 mph - N/A   Clear
4:11 AM 42.8 °F 40.1 °F 41.0 °F 93% 30.24 in 10.0 mi South 4.6 mph - N/A   Clear
4:31 AM 41.0 °F - 39.2 °F 93% 30.24 in 10.0 mi Calm Calm - N/A   Clear
4:51 AM 39.2 °F 35.9 °F 37.4 °F 93% 30.25 in 10.0 mi SSW 4.6 mph - N/A   Clear
5:07 AM 41.0 °F 37.1 °F 39.2 °F 93% 30.24 in 10.0 mi SSW 5.8 mph - N/A   Clear
5:31 AM 42.8 °F 39.3 °F 41.0 °F 93% 30.25 in 10.0 mi SW 5.8 mph - N/A   Clear
5:49 AM 42.8 °F 39.3 °F 41.0 °F 93% 30.26 in 10.0 mi SW 5.8 mph - N/A   Clear
6:11 AM 41.0 °F 38.0 °F 39.2 °F 93% 30.25 in 10.0 mi SSW 4.6 mph - N/A   Clear
6:31 AM 42.8 °F 38.0 °F 41.0 °F 93% 30.24 in 10.0 mi SSE 8.1 mph - N/A   Clear
6:51 AM 42.8 °F 40.1 °F 41.0 °F 93% 30.26 in 10.0 mi SSE 4.6 mph - N/A   Clear
7:10 AM 42.8 °F 38.0 °F 41.0 °F 93% 30.25 in 10.0 mi South 8.1 mph - N/A   Scattered Clouds
7:24 AM 42.8 °F 38.0 °F 41.0 °F 93% 30.25 in 10.0 mi South 8.1 mph - N/A   Mostly Cloudy
7:47 AM 44.6 °F 40.7 °F 42.8 °F 93% 30.26 in 10.0 mi South 6.9 mph - N/A   Overcast
8:02 AM 44.6 °F 39.2 °F 42.8 °F 93% 30.27 in 10.0 mi South 10.4 mph - N/A   Overcast
8:31 AM 46.4 °F 43.5 °F 42.8 °F 87% 30.28 in 10.0 mi WSW 5.8 mph - N/A   Overcast
8:37 AM 46.4 °F 42.9 °F 42.8 °F 87% 30.28 in 10.0 mi SW 6.9 mph - N/A   Overcast
9:11 AM 50.0 °F - 44.6 °F 82% 30.27 in 10.0 mi SSW 9.2 mph - N/A   Overcast
9:29 AM 50.0 °F - 44.6 °F 82% 30.27 in 10.0 mi SSW 10.4 mph - N/A   Overcast
9:49 AM 51.8 °F - 44.6 °F 76% 30.27 in 10.0 mi SSW 12.7 mph - N/A   Mostly Cloudy
10:10 AM 53.6 °F - 44.6 °F 72% 30.27 in 10.0 mi South 11.5 mph - N/A   Mostly Cloudy
10:31 AM 53.6 °F - 44.6 °F 72% 30.27 in 10.0 mi South 11.5 mph - N/A   Scattered Clouds
10:51 AM 53.6 °F - 44.6 °F 72% 30.27 in 10.0 mi South 9.2 mph - N/A   Clear
11:08 AM 55.4 °F - 44.6 °F 67% 30.26 in 10.0 mi South 10.4 mph - N/A Thunderstorm Scattered Clouds
11:30 AM 55.4 °F - 44.6 °F 67% 30.26 in 10.0 mi SSE 9.2 mph - N/A Thunderstorm Scattered Clouds
11:48 AM 55.4 °F - 44.6 °F 67% 30.26 in 10.0 mi SSE 10.4 mph - N/A   Scattered Clouds
12:08 PM 57.2 °F - 46.4 °F 67% 30.25 in 10.0 mi SSE 9.2 mph - N/A   Mostly Cloudy
12:15 PM 57.2 °F - 44.6 °F 63% 30.25 in 10.0 mi SSW 9.2 mph - N/A   Mostly Cloudy
12:48 PM 55.4 °F - 44.6 °F 67% 30.24 in 10.0 mi South 5.8 mph - N/A Thunderstorm Scattered Clouds
1:11 PM 57.2 °F - 44.6 °F 63% 30.23 in 10.0 mi SSW 3.5 mph - N/A Thunderstorm Thunderstorm
1:23 PM 55.4 °F - 44.6 °F 67% 30.24 in 10.0 mi SSW 4.6 mph - N/A Thunderstorm Thunderstorm
1:43 PM 51.8 °F - 44.6 °F 76% 30.25 in 10.0 mi WNW 12.7 mph - N/A Rain , Thunderstorm Light Thunderstorms and Rain
2:00 PM 44.6 °F 43.1 °F 41.0 °F 87% 30.25 in 3.0 mi ENE 3.5 mph - 0.03 in Rain , Thunderstorm Heavy Thunderstorms and Rain
2:23 PM 44.6 °F 43.1 °F 42.8 °F 93% 30.26 in 7.0 mi South 3.5 mph - 0.08 in Rain , Thunderstorm Thunderstorms and Rain
3:11 PM 46.4 °F 43.5 °F 44.6 °F 93% 30.25 in 10.0 mi SSW 5.8 mph - N/A Rain Light Rain
3:29 PM 50.0 °F - 46.4 °F 87% 30.24 in 10.0 mi SW 3.5 mph - 0.01 in   Overcast
3:41 PM 51.8 °F - 44.6 °F 76% 30.24 in 10.0 mi WNW 3.5 mph - 0.01 in   Mostly Cloudy
4:25 PM 55.4 °F - 44.6 °F 67% 30.23 in 10.0 mi WNW 6.9 mph - N/A   Scattered Clouds
4:46 PM 55.4 °F - 44.6 °F 67% 30.23 in 10.0 mi NW 6.9 mph - N/A   Clear
4:55 PM 55.4 °F - 44.6 °F 67% 30.24 in 10.0 mi WNW 5.8 mph - N/A   Clear
5:31 PM 55.4 °F - 42.8 °F 63% 30.24 in 10.0 mi WNW 8.1 mph - N/A   Clear
5:51 PM 51.8 °F - 42.8 °F 71% 30.24 in 10.0 mi NW 6.9 mph - N/A Thunderstorm Clear
6:06 PM 51.8 °F - 44.6 °F 76% 30.24 in 10.0 mi NW 8.1 mph - N/A   Clear
6:21 PM 51.8 °F - 42.8 °F 71% 30.24 in 10.0 mi NNW 10.4 mph - N/A   Clear
6:51 PM 50.0 °F - 44.6 °F 82% 30.24 in 10.0 mi NNW 6.9 mph - N/A   Clear
7:11 PM 48.2 °F - 44.6 °F 87% 30.24 in 10.0 mi NW 6.9 mph - N/A   Clear
7:15 PM 48.2 °F - 44.6 °F 87% 30.24 in 10.0 mi NW 8.1 mph - N/A   Clear
7:48 PM 46.4 °F 43.5 °F 44.6 °F 93% 30.25 in 10.0 mi North 5.8 mph - N/A   Scattered Clouds
8:03 PM 46.4 °F 44.3 °F 44.6 °F 93% 30.27 in 10.0 mi North 4.6 mph - N/A   Clear
8:29 PM 44.6 °F - 44.6 °F 100% 30.28 in 10.0 mi Calm Calm - N/A   Scattered Clouds
8:43 PM 44.6 °F 43.1 °F 44.6 °F 100% 30.29 in 10.0 mi NNE 3.5 mph - N/A   Clear
9:11 PM 44.6 °F 42.2 °F 44.6 °F 100% 30.29 in 10.0 mi North 4.6 mph - N/A   Clear
9:29 PM 44.6 °F 41.4 °F 44.6 °F 100% 30.29 in 10.0 mi North 5.8 mph - N/A   Clear
9:47 PM 44.6 °F 42.2 °F 42.8 °F 93% 30.30 in 10.0 mi NNW 4.6 mph - N/A   Clear
10:09 PM 42.8 °F 41.1 °F 42.8 °F 100% 30.30 in 7.0 mi West 3.5 mph - N/A   Clear
10:22 PM 42.8 °F 40.1 °F 42.8 °F 100% 30.30 in 5.0 mi West 4.6 mph - N/A   Clear
10:36 PM 44.6 °F 43.1 °F 42.8 °F 93% 30.30 in 7.0 mi WNW 3.5 mph - N/A   Clear
11:11 PM 42.8 °F 40.1 °F 41.0 °F 93% 30.30 in 5.0 mi West 4.6 mph - N/A   Clear
11:31 PM 42.8 °F 38.6 °F 42.8 °F 100% 30.30 in 5.0 mi WSW 6.9 mph - N/A   Clear
11:50 PM 42.8 °F 38.0 °F 41.0 °F 93% 30.29 in 5.0 mi West 8.1 mph - N/A   Clear